Regional Weather Roundup
Issued by NWS

Home | Current Version | Previous Version | Text Only | Print | Product List | Glossary Off
Versions: 1 2 3 4 5 6 7 8 9 10 11 12 13 14 15 16 17 18 19 20 21 22 23 24 25 26 27 28 29 30 31 32 33 34 35 36 37 38 39 40 41 42 43 44 45 46 47 48 49 50

000
ASUS43 KFSD 210302
RWRSD

WEATHER ROUNDUP FOR SOUTH DAKOTA
NATIONAL WEATHER SERVICE SIOUX FALLS SD
1000 PM CDT MON OCT 20 2014

NOTE: "FAIR" INDICATES FEW OR NO CLOUDS BELOW 12,000 FEET WITH NO
SIGNIFICANT WEATHER AND/OR OBSTRUCTIONS TO VISIBILITY.


SDZ001>005-009-010-012>017-210400-
NORTHWEST AND NORTH CENTRAL SOUTH DAKOTA

CITY           SKY/WX    TMP DP  RH WIND       PRES   REMARKS
FAITH            N/A     59  40  49 SE17      29.88F
MOBRIDGE       CLEAR     58  35  42 SE13      29.92S
$$

SDZ012>016-024>037-041>051-057-063-072>074-210400-
SOUTHWEST AND SOUTH CENTRAL SOUTH DAKOTA

CITY           SKY/WX    TMP DP  RH WIND       PRES   REMARKS
RAPID CTY ARPT CLEAR     57  43  59 SE6       29.90F
PIERRE         CLEAR     60  38  43 SE16      29.93S
CUSTER         CLEAR     50  36  58 CALM      30.03F
PHILIP         CLEAR     57  40  52 E6        29.89S
PINE RIDGE     CLEAR     67  39  35 S18G25    29.95R
SPEARFISH      FAIR      50  37  62 CALM      29.92S
WINNER         FAIR      58  40  51 SE9       29.97S
$$

SDZ004>011-016>023-039-040-210400-
NORTHEAST SOUTH DAKOTA

CITY           SKY/WX    TMP DP  RH WIND       PRES   REMARKS
ABERDEEN       CLEAR     48  35  60 E8        30.02R
WATERTOWN      CLEAR     47  37  68 CALM      30.05R
SISSETON         N/A     39  36  89 W5        30.05R
$$

SDZ017-020-022-023-036>040-048>070-210400-
SOUTHEAST SOUTH DAKOTA

CITY           SKY/WX    TMP DP  RH WIND       PRES   REMARKS
SIOUX FALLS    CLEAR     49  39  68 CALM      30.05R
HURON          CLEAR     51  34  52 SE8       30.02S
CHAMBERLAIN    CLEAR     51  35  54 SE9       29.99S
MITCHELL       CLEAR     49  36  61 SE7       30.03S
YANKTON        CLEAR     50  37  62 CALM      30.05S
$$

ABBREVIATIONS USED IN REMARKS
   TC - TEMPERATURE IN CELSIUS
  WCI - WIND CHILL INDEX
   HX - HEAT INDEX
  VSB - VISIBILITY



USA.gov is the U.S. government's official web portal to all federal, state and local government web resources and services.